| time (UTC) | temp F | wind direction | speed knots | gust knots | rain 1hr in | rain 24hr in | rain mn in | humidity % | barometer mb |
| 20260507210057 | 56 | 264 | 0.0 | 0.0 | 0.00 | 0.06 | 0.06 | 86 | 1015.8 |
| 20260507205058 | 57 | 264 | 0.0 | 0.0 | 0.00 | 0.06 | 0.06 | 86 | 1016.0 |
| 20260507204559 | 57 | 264 | 0.0 | 0.0 | 0.00 | 0.06 | 0.06 | 86 | 1016.0 |
| 20260507204058 | 57 | 264 | 0.0 | 0.0 | 0.00 | 0.06 | 0.06 | 86 | 1016.0 |
| 20260507203557 | 58 | 51 | 0.0 | 0.0 | 0.00 | 0.06 | 0.06 | 86 | 1016.0 |
| 20260507203100 | 58 | 52 | 0.0 | 0.0 | 0.00 | 0.06 | 0.06 | 85 | 1015.9 |
| 20260507202057 | 58 | 51 | 0.0 | 0.0 | 0.00 | 0.06 | 0.06 | 84 | 1016.1 |
| 20260507201046 | 59 | 51 | 0.0 | 0.0 | 0.00 | 0.06 | 0.06 | 84 | 1015.5 |
| 20260507200040 | 59 | 51 | 0.0 | 0.9 | 0.00 | 0.06 | 0.06 | 83 | 1015.7 |
| 20260507195535 | 59 | 321 | 0.0 | 0.0 | 0.00 | 0.06 | 0.06 | 83 | 1015.7 |
| 20260507195034 | 59 | 321 | 0.0 | 1.7 | 0.00 | 0.06 | 0.06 | 83 | 1015.7 |
| 20260507194534 | 59 | 303 | 0.0 | 1.7 | 0.00 | 0.06 | 0.06 | 83 | 1015.6 |
| 20260507193534 | 59 | 292 | 0.0 | 1.7 | 0.00 | 0.06 | 0.06 | 82 | 1015.4 |
| 20260507193035 | 59 | 210 | 0.0 | 1.7 | 0.00 | 0.06 | 0.06 | 83 | 1015.7 |
| 20260507192537 | 59 | 192 | 0.0 | 1.7 | 0.00 | 0.06 | 0.06 | 83 | 1015.6 |
| 20260507192036 | 59 | 257 | 0.0 | 1.7 | 0.00 | 0.06 | 0.06 | 83 | 1015.4 |
| 20260507191536 | 59 | 281 | 0.0 | 1.7 | 0.00 | 0.06 | 0.06 | 83 | 1015.4 |
| 20260507191018 | 59 | 274 | 0.0 | 1.7 | 0.00 | 0.06 | 0.06 | 84 | 1015.4 |
| 20260507190011 | 59 | 289 | 0.9 | 2.6 | 0.00 | 0.06 | 0.06 | 84 | 1015.5 |
| 20260507185012 | 59 | 264 | 1.7 | 2.6 | 0.00 | 0.06 | 0.06 | 84 | 1015.5 |
| 20260507184509 | 59 | 273 | 0.9 | 2.6 | 0.00 | 0.06 | 0.06 | 85 | 1015.3 |
| 20260507183513 | 59 | 252 | 0.9 | 1.7 | 0.00 | 0.06 | 0.06 | 86 | 1015.3 |
| 20260507183010 | 60 | 287 | 0.0 | 0.0 | 0.00 | 0.06 | 0.06 | 86 | 1015.1 |
| 20260507182510 | 60 | 287 | 0.0 | 0.0 | 0.00 | 0.06 | 0.06 | 85 | 1015.2 |
| 20260507181514 | 60 | 287 | 0.0 | 1.7 | 0.00 | 0.06 | 0.06 | 86 | 1015.2 |
| 20260507181010 | 60 | 252 | 0.0 | 1.7 | 0.00 | 0.06 | 0.06 | 86 | 1015.1 |
| 20260507180514 | 60 | 318 | 0.0 | 0.0 | 0.00 | 0.06 | 0.06 | 86 | 1014.7 |
| 20260507180010 | 60 | 55 | 0.0 | 5.2 | 0.00 | 0.06 | 0.06 | 86 | 1014.9 |
| 20260507175510 | 60 | 181 | 0.0 | 5.2 | 0.00 | 0.06 | 0.06 | 87 | 1014.7 |
| 20260507175013 | 60 | 124 | 1.7 | 3.5 | 0.00 | 0.06 | 0.06 | 87 | 1014.5 |
| 20260507174511 | 60 | 281 | 0.0 | 0.0 | 0.00 | 0.06 | 0.06 | 87 | 1014.6 |
| 20260507174010 | 60 | 281 | 0.0 | 0.0 | 0.00 | 0.06 | 0.06 | 87 | 1014.5 |
| 20260507173512 | 60 | 281 | 0.0 | 1.7 | 0.00 | 0.06 | 0.06 | 86 | 1014.3 |
| 20260507173010 | 60 | 281 | 0.0 | 1.7 | 0.00 | 0.06 | 0.06 | 86 | 1014.4 |
| 20260507172022 | 60 | 281 | 0.0 | 1.7 | 0.00 | 0.06 | 0.06 | 84 | 1014.3 |
| 20260507171510 | 61 | 281 | 0.9 | 1.7 | 0.01 | 0.06 | 0.06 | 84 | 1014.3 |
| 20260507171009 | 61 | 281 | 1.7 | 1.7 | 0.01 | 0.06 | 0.06 | 83 | 1014.4 |
| 20260507170512 | 61 | 166 | 0.0 | 0.0 | 0.01 | 0.06 | 0.06 | 82 | 1014.2 |
| 20260507170009 | 61 | 140 | 0.0 | 0.9 | 0.01 | 0.06 | 0.06 | 82 | 1014.1 |
| 20260507165509 | 61 | 166 | 0.0 | 1.7 | 0.01 | 0.06 | 0.06 | 81 | 1014.1 |
| 20260507165011 | 61 | 157 | 0.0 | 2.6 | 0.01 | 0.06 | 0.06 | 81 | 1014.4 |
| 20260507164009 | 62 | 169 | 0.9 | 6.1 | 0.01 | 0.06 | 0.06 | 79 | 1014.3 |
| 20260507163512 | 62 | 240 | 0.0 | 5.2 | 0.01 | 0.06 | 0.06 | 79 | 1014.4 |
| 20260507163008 | 62 | 101 | 3.5 | 5.2 | 0.01 | 0.06 | 0.06 | 78 | 1014.6 |
| 20260507162008 | 62 | 170 | 0.0 | 0.9 | 0.00 | 0.06 | 0.06 | 77 | 1014.5 |
| 20260507161007 | 63 | 87 | 0.9 | 3.5 | 0.00 | 0.06 | 0.05 | 75 | 1014.6 |
| 20260507160509 | 63 | 98 | 0.9 | 3.5 | 0.00 | 0.06 | 0.05 | 75 | 1014.3 |
| 20260507160010 | 63 | 84 | 0.9 | 2.6 | 0.00 | 0.06 | 0.05 | 74 | 1014.3 |
| 20260507155509 | 63 | 284 | 0.0 | 2.6 | 0.00 | 0.06 | 0.05 | 73 | 1014.1 |
| 20260507155009 | 63 | 162 | 0.0 | 1.7 | 0.00 | 0.06 | 0.05 | 78 | 1014.3 |
| 20260507154510 | 63 | 122 | 0.9 | 1.7 | 0.00 | 0.06 | 0.05 | 79 | 1014.3 |
| 20260507154010 | 63 | 122 | 0.9 | 1.7 | 0.01 | 0.06 | 0.05 | 79 | 1014.2 |
| 20260507153513 | 63 | 119 | 0.0 | 1.7 | 0.02 | 0.06 | 0.05 | 80 | 1014.3 |
| 20260507153010 | 63 | 55 | 0.0 | 1.7 | 0.02 | 0.06 | 0.05 | 80 | 1014.3 |
| 20260507152511 | 63 | 100 | 0.9 | 1.7 | 0.02 | 0.06 | 0.05 | 79 | 1014.3 |
| 20260507152009 | 63 | 260 | 0.0 | 2.6 | 0.02 | 0.06 | 0.05 | 79 | 1014.3 |
| 20260507151509 | 63 | 132 | 0.0 | 2.6 | 0.02 | 0.06 | 0.05 | 80 | 1014.6 |
| 20260507151009 | 63 | 267 | 0.0 | 2.6 | 0.02 | 0.06 | 0.05 | 79 | 1014.4 |
| 20260507150508 | 63 | 339 | 1.7 | 2.6 | 0.02 | 0.06 | 0.05 | 79 | 1014.4 |
| 20260507145510 | 63 | 291 | 0.9 | 3.5 | 0.02 | 0.06 | 0.05 | 78 | 1014.6 |
| 20260507145008 | 63 | 250 | 1.7 | 2.6 | 0.02 | 0.06 | 0.05 | 77 | 1014.5 |
| 20260507144510 | 64 | 276 | 0.9 | 2.6 | 0.02 | 0.05 | 0.05 | 76 | 1014.4 |
| 20260507144011 | 64 | 255 | 0.9 | 3.5 | 0.01 | 0.04 | 0.04 | 75 | 1014.4 |
| 20260507143509 | 65 | 281 | 0.9 | 3.5 | 0.00 | 0.04 | 0.04 | 72 | 1014.5 |
| 20260507143000 | 65 | 327 | 1.7 | 3.5 | 0.00 | 0.04 | 0.03 | 71 | 1014.4 |
| 20260507142502 | 65 | 60 | 0.9 | 3.5 | 0.00 | 0.03 | 0.03 | 71 | 1014.6 |
| 20260507142000 | 65 | 316 | 0.9 | 1.7 | 0.00 | 0.03 | 0.03 | 71 | 1014.6 |
| 20260507141002 | 66 | 243 | 1.7 | 5.2 | 0.00 | 0.03 | 0.03 | 67 | 1014.3 |
| 20260507140501 | 66 | 283 | 0.0 | 7.8 | 0.00 | 0.03 | 0.03 | 66 | 1014.4 |
| 20260507140004 | 67 | 234 | 5.2 | 8.7 | 0.00 | 0.03 | 0.03 | 65 | 1014.4 |
| 20260507135502 | 67 | 5 | 1.7 | 8.7 | 0.00 | 0.03 | 0.03 | 64 | 1014.2 |
| 20260507135001 | 68 | 210 | 1.7 | 6.1 | 0.00 | 0.03 | 0.03 | 63 | 1014.2 |
| 20260507134501 | 68 | 235 | 2.6 | 3.5 | 0.00 | 0.03 | 0.03 | 61 | 1014.3 |
| 20260507134002 | 68 | 260 | 1.7 | 6.1 | 0.00 | 0.03 | 0.03 | 60 | 1014.2 |
| 20260507133459 | 69 | 299 | 0.0 | 8.7 | 0.00 | 0.03 | 0.03 | 59 | 1014.2 |
| 20260507133002 | 69 | 330 | 0.0 | 8.7 | 0.00 | 0.03 | 0.03 | 58 | 1014.1 |
| 20260507132502 | 69 | 275 | 1.7 | 3.5 | 0.00 | 0.03 | 0.03 | 58 | 1014.0 |
| 20260507132000 | 69 | 222 | 0.0 | 2.6 | 0.00 | 0.03 | 0.03 | 58 | 1014.1 |
| 20260507131459 | 69 | 15 | 0.9 | 2.6 | 0.00 | 0.03 | 0.03 | 59 | 1013.9 |
| 20260507131004 | 69 | 283 | 0.0 | 2.6 | 0.00 | 0.03 | 0.03 | 59 | 1014.1 |
| 20260507130501 | 69 | 139 | 0.9 | 0.9 | 0.00 | 0.03 | 0.03 | 60 | 1014.0 |
| 20260507125959 | 69 | 144 | 0.0 | 2.6 | 0.00 | 0.03 | 0.03 | 58 | 1013.9 |
| 20260507125502 | 69 | 286 | 0.0 | 2.6 | 0.00 | 0.03 | 0.03 | 57 | 1014.1 |
| 20260507125001 | 69 | 258 | 0.0 | 3.5 | 0.00 | 0.03 | 0.03 | 57 | 1014.1 |
| 20260507124002 | 69 | 357 | 1.7 | 5.2 | 0.00 | 0.03 | 0.03 | 58 | 1014.1 |
| 20260507123459 | 69 | 190 | 0.9 | 3.5 | 0.00 | 0.03 | 0.03 | 56 | 1013.8 |
| 20260507123000 | 70 | 124 | 0.0 | 2.6 | 0.00 | 0.03 | 0.03 | 57 | 1014.1 |
| 20260507122504 | 70 | 51 | 0.9 | 2.6 | 0.00 | 0.03 | 0.03 | 58 | 1013.8 |
| 20260507122000 | 70 | 70 | 0.0 | 3.5 | 0.00 | 0.03 | 0.03 | 58 | 1013.8 |
| 20260507121500 | 70 | 84 | 0.9 | 9.6 | 0.00 | 0.03 | 0.03 | 57 | 1014.1 |
| 20260507121004 | 70 | 11 | 1.7 | 9.6 | 0.00 | 0.03 | 0.03 | 56 | 1014.1 |
| 20260507120501 | 70 | 213 | 1.7 | 6.1 | 0.00 | 0.03 | 0.03 | 56 | 1014.1 |
| 20260507120000 | 70 | 219 | 1.7 | 3.5 | 0.00 | 0.03 | 0.03 | 56 | 1014.0 |
| 20260507115502 | 70 | 284 | 0.9 | 3.5 | 0.00 | 0.03 | 0.03 | 56 | 1014.2 |
| 20260507115001 | 70 | 287 | 1.7 | 3.5 | 0.00 | 0.03 | 0.03 | 56 | 1014.2 |
| 20260507114500 | 70 | 89 | 0.9 | 5.2 | 0.00 | 0.03 | 0.03 | 56 | 1014.3 |
| 20260507114002 | 70 | 225 | 2.6 | 5.2 | 0.00 | 0.03 | 0.03 | 56 | 1014.0 |
| 20260507113459 | 70 | 211 | 0.0 | 3.5 | 0.00 | 0.03 | 0.03 | 55 | 1014.0 |
| 20260507113000 | 70 | 209 | 1.7 | 2.6 | 0.00 | 0.03 | 0.03 | 55 | 1014.0 |
| 20260507112502 | 70 | 101 | 0.9 | 5.2 | 0.00 | 0.03 | 0.03 | 55 | 1013.9 |
| 20260507112000 | 71 | 5 | 0.9 | 5.2 | 0.00 | 0.03 | 0.03 | 53 | 1014.2 |
| 20260507111502 | 71 | 336 | 3.5 | 7.8 | 0.00 | 0.03 | 0.03 | 53 | 1014.0 |
| 20260507111002 | 72 | 342 | 4.3 | 7.8 | 0.00 | 0.03 | 0.03 | 52 | 1014.0 |
| 20260507110501 | 72 | 222 | 2.6 | 7.0 | 0.00 | 0.03 | 0.03 | 51 | 1014.1 |
| 20260507110000 | 72 | 342 | 3.5 | 5.2 | 0.00 | 0.03 | 0.03 | 54 | 1013.9 |
| 20260507105501 | 72 | 254 | 0.9 | 12.2 | 0.00 | 0.03 | 0.03 | 55 | 1014.0 |
| 20260507105000 | 72 | 236 | 1.7 | 12.2 | 0.00 | 0.03 | 0.03 | 55 | 1014.1 |
| 20260507104459 | 71 | 119 | 5.2 | 8.7 | 0.00 | 0.03 | 0.03 | 55 | 1013.9 |
| 20260507104001 | 71 | 104 | 2.6 | 7.0 | 0.00 | 0.03 | 0.03 | 54 | 1014.2 |
| 20260507103500 | 72 | 326 | 4.3 | 7.0 | 0.00 | 0.03 | 0.03 | 54 | 1014.3 |
| 20260507103000 | 71 | 258 | 2.6 | 7.0 | 0.00 | 0.03 | 0.03 | 55 | 1014.2 |
| 20260507102502 | 71 | 123 | 3.5 | 7.8 | 0.00 | 0.03 | 0.03 | 56 | 1014.1 |
| 20260507102003 | 71 | 261 | 0.9 | 9.6 | 0.00 | 0.03 | 0.03 | 57 | 1014.1 |
| 20260507101458 | 71 | 188 | 5.2 | 9.6 | 0.00 | 0.03 | 0.03 | 57 | 1014.5 |
| 20260507101003 | 70 | 293 | 5.2 | 7.8 | 0.00 | 0.03 | 0.03 | 59 | 1014.2 |
| 20260507100500 | 70 | 169 | 4.3 | 8.7 | 0.00 | 0.03 | 0.03 | 57 | 1014.1 |
| 20260507095959 | 70 | 261 | 2.6 | 8.7 | 0.00 | 0.03 | 0.03 | 59 | 1014.2 |
| 20260507094958 | 69 | 137 | 0.9 | 3.5 | 0.00 | 0.03 | 0.03 | 61 | 1014.0 |
| 20260507094001 | 69 | 93 | 1.7 | 5.2 | 0.00 | 0.03 | 0.03 | 62 | 1014.1 |
| 20260507093000 | 68 | 81 | 0.9 | 6.1 | 0.00 | 0.03 | 0.03 | 62 | 1014.0 |
| 20260507091958 | 68 | 1 | 0.0 | 2.6 | 0.00 | 0.03 | 0.03 | 64 | 1014.1 |
| 20260507091459 | 68 | 275 | 1.7 | 2.6 | 0.00 | 0.03 | 0.03 | 64 | 1014.1 |
| 20260507091003 | 68 | 84 | 0.0 | 3.5 | 0.00 | 0.03 | 0.03 | 63 | 1014.2 |
| 20260507090457 | 68 | 325 | 0.0 | 6.1 | 0.00 | 0.03 | 0.03 | 64 | 1014.3 |
| 20260507085958 | 67 | 116 | 0.9 | 8.7 | 0.00 | 0.03 | 0.03 | 64 | 1014.0 |
| 20260507084959 | 67 | 70 | 0.9 | 6.1 | 0.00 | 0.03 | 0.03 | 66 | 1014.2 |
| 20260507083957 | 66 | 225 | 6.1 | 7.0 | 0.00 | 0.03 | 0.03 | 68 | 1014.0 |
| 20260507082959 | 65 | 113 | 0.9 | 7.0 | 0.00 | 0.03 | 0.03 | 69 | 1013.8 |
| 20260507081958 | 65 | 123 | 0.0 | 5.2 | 0.00 | 0.03 | 0.03 | 68 | 1013.9 |
| 20260507081457 | 65 | 129 | 1.7 | 5.2 | 0.00 | 0.03 | 0.03 | 68 | 1013.9 |
| 20260507080957 | 65 | 130 | 1.7 | 2.6 | 0.00 | 0.03 | 0.03 | 69 | 1013.7 |
| 20260507080459 | 65 | 84 | 0.9 | 1.7 | 0.00 | 0.03 | 0.03 | 69 | 1013.9 |
| 20260507075957 | 65 | 41 | 0.9 | 1.7 | 0.00 | 0.03 | 0.03 | 71 | 1013.7 |
| 20260507075458 | 65 | 343 | 0.0 | 1.7 | 0.00 | 0.03 | 0.03 | 70 | 1013.7 |
| 20260507074958 | 65 | 88 | 0.0 | 2.6 | 0.00 | 0.03 | 0.03 | 69 | 1013.6 |
| 20260507074458 | 65 | 29 | 0.9 | 2.6 | 0.00 | 0.03 | 0.03 | 70 | 1013.6 |
| 20260507073957 | 65 | 112 | 0.9 | 5.2 | 0.00 | 0.03 | 0.03 | 68 | 1013.7 |
| 20260507073459 | 65 | 40 | 0.9 | 5.2 | 0.00 | 0.03 | 0.03 | 69 | 1013.5 |
| 20260507072957 | 65 | 224 | 2.6 | 7.0 | 0.00 | 0.03 | 0.03 | 68 | 1013.7 |
| 20260507072458 | 65 | 126 | 0.0 | 7.0 | 0.00 | 0.03 | 0.03 | 67 | 1013.4 |
| 20260507071959 | 65 | 299 | 3.5 | 7.0 | 0.00 | 0.03 | 0.03 | 69 | 1013.5 |
| 20260507071457 | 65 | 193 | 1.7 | 3.5 | 0.00 | 0.03 | 0.03 | 69 | 1013.5 |
| 20260507070958 | 65 | 7 | 0.9 | 3.5 | 0.00 | 0.03 | 0.03 | 71 | 1013.5 |
| 20260507070500 | 64 | 232 | 0.9 | 3.5 | 0.00 | 0.03 | 0.03 | 72 | 1013.7 |
| 20260507065956 | 64 | 308 | 0.9 | 3.5 | 0.00 | 0.03 | 0.03 | 71 | 1013.4 |
| 20260507065457 | 64 | 297 | 0.0 | 3.5 | 0.00 | 0.03 | 0.03 | 72 | 1013.4 |
| 20260507065015 | 64 | 142 | 1.7 | 3.5 | 0.00 | 0.03 | 0.03 | 71 | 1013.3 |
| 20260507064457 | 64 | 154 | 1.7 | 2.6 | 0.00 | 0.03 | 0.03 | 73 | 1013.7 |
| 20260507063957 | 63 | 110 | 0.0 | 2.6 | 0.00 | 0.03 | 0.03 | 74 | 1013.4 |
| 20260507063501 | 63 | 141 | 0.9 | 1.7 | 0.00 | 0.03 | 0.03 | 74 | 1013.2 |
| 20260507062958 | 63 | 133 | 0.0 | 1.7 | 0.00 | 0.03 | 0.03 | 73 | 1013.4 |
| 20260507062457 | 63 | 101 | 0.9 | 2.6 | 0.00 | 0.03 | 0.03 | 73 | 1013.2 |
| 20260507061959 | 63 | 235 | 2.6 | 2.6 | 0.00 | 0.03 | 0.03 | 74 | 1013.3 |
| 20260507060957 | 62 | 219 | 3.5 | 7.0 | 0.00 | 0.03 | 0.03 | 76 | 1013.2 |
| 20260507055957 | 62 | 142 | 1.7 | 5.2 | 0.00 | 0.03 | 0.03 | 76 | 1013.0 |
| 20260507055458 | 62 | 214 | 1.7 | 5.2 | 0.00 | 0.03 | 0.03 | 76 | 1013.2 |
| 20260507055001 | 62 | 160 | 1.7 | 5.2 | 0.00 | 0.03 | 0.03 | 77 | 1012.9 |
| 20260507054457 | 62 | 89 | 0.0 | 5.2 | 0.00 | 0.03 | 0.03 | 77 | 1013.2 |
| 20260507053956 | 62 | 224 | 1.7 | 5.2 | 0.00 | 0.03 | 0.03 | 77 | 1012.9 |
| 20260507053459 | 62 | 181 | 0.0 | 3.5 | 0.00 | 0.03 | 0.03 | 79 | 1013.1 |
| 20260507052500 | 61 | 107 | 0.0 | 0.0 | 0.00 | 0.03 | 0.03 | 81 | 1012.8 |
| 20260507052000 | 61 | 107 | 0.0 | 0.9 | 0.00 | 0.03 | 0.03 | 80 | 1012.7 |
| 20260507051458 | 61 | 107 | 0.0 | 0.9 | 0.00 | 0.03 | 0.03 | 80 | 1012.8 |
| 20260507050959 | 61 | 107 | 0.0 | 1.7 | 0.00 | 0.03 | 0.03 | 80 | 1012.5 |
| 20260507050500 | 61 | 107 | 0.0 | 2.6 | 0.00 | 0.03 | 0.03 | 80 | 1012.6 |
| 20260507045959 | 60 | 98 | 0.9 | 2.6 | 0.00 | 0.03 | 0.03 | 80 | 1012.6 |
| 20260507045458 | 60 | 78 | 0.9 | 2.6 | 0.00 | 0.03 | 0.03 | 80 | 1012.5 |
| 20260507045000 | 60 | 94 | 0.9 | 3.5 | 0.00 | 0.03 | 0.03 | 81 | 1012.4 |
| 20260507044459 | 60 | 158 | 0.9 | 5.2 | 0.00 | 0.03 | 0.03 | 81 | 1012.1 |
| 20260507043501 | 59 | 254 | 2.6 | 6.1 | 0.00 | 0.03 | 0.03 | 83 | 1012.3 |
| 20260507042959 | 59 | 225 | 0.0 | 3.5 | 0.00 | 0.03 | 0.03 | 84 | 1012.1 |
| 20260507042458 | 59 | 238 | 0.9 | 2.6 | 0.00 | 0.03 | 0.03 | 85 | 1012.0 |
| 20260507041946 | 59 | 271 | 1.7 | 2.6 | 0.00 | 0.03 | 0.03 | 85 | 1012.2 |
| 20260507041446 | 59 | 293 | 1.7 | 2.6 | 0.00 | 0.03 | 0.03 | 85 | 1011.9 |
| 20260507040949 | 59 | 274 | 0.0 | 2.6 | 0.00 | 0.03 | 0.03 | 85 | 1012.2 |
| 20260507040444 | 59 | 270 | 0.9 | 3.5 | 0.00 | 0.03 | 0.03 | 85 | 1012.0 |
| 20260507035945 | 58 | 255 | 0.9 | 3.5 | 0.00 | 0.03 | 0.03 | 85 | 1012.1 |
| 20260507035448 | 58 | 229 | 1.7 | 3.5 | 0.00 | 0.03 | 0.03 | 86 | 1012.1 |
| 20260507034944 | 58 | 229 | 2.6 | 3.5 | 0.00 | 0.03 | 0.03 | 86 | 1012.0 |
| 20260507033947 | 58 | 239 | 1.7 | 3.5 | 0.00 | 0.03 | 0.03 | 87 | 1011.8 |
| 20260507033445 | 58 | 256 | 0.0 | 3.5 | 0.00 | 0.03 | 0.03 | 88 | 1011.8 |
| 20260507032948 | 58 | 170 | 0.0 | 3.5 | 0.00 | 0.03 | 0.03 | 90 | 1011.5 |
| 20260507031944 | 56 | 197 | 0.0 | 2.6 | 0.00 | 0.03 | 0.03 | 91 | 1011.6 |
| 20260507030445 | 56 | 129 | 0.0 | 1.7 | 0.00 | 0.03 | 0.03 | 90 | 1011.6 |
| 20260507025448 | 56 | 16 | 0.0 | 0.0 | 0.00 | 0.03 | 0.03 | 89 | 1011.5 |
| 20260507024947 | 56 | 213 | 0.0 | 0.0 | 0.00 | 0.03 | 0.03 | 89 | 1011.6 |
| 20260507024444 | 56 | 305 | 0.0 | 0.0 | 0.00 | 0.03 | 0.03 | 89 | 1011.5 |
| 20260507023449 | 57 | 316 | 0.0 | 0.0 | 0.00 | 0.03 | 0.03 | 88 | 1011.7 |
| 20260507022945 | 57 | 308 | 0.0 | 0.9 | 0.00 | 0.03 | 0.03 | 89 | 1011.6 |
| 20260507022440 | 57 | 228 | 0.0 | 1.7 | 0.00 | 0.03 | 0.03 | 89 | 1011.6 |
| 20260507021933 | 57 | 118 | 1.7 | 1.7 | 0.00 | 0.03 | 0.03 | 89 | 1011.5 |
| 20260507021436 | 57 | 339 | 0.0 | 1.7 | 0.00 | 0.03 | 0.03 | 88 | 1011.8 |
| 20260507020933 | 58 | 279 | 0.9 | 1.7 | 0.00 | 0.03 | 0.03 | 87 | 1011.6 |
| 20260507020433 | 58 | 329 | 0.0 | 1.7 | 0.00 | 0.03 | 0.03 | 87 | 1011.7 |
| 20260507015938 | 58 | 330 | 0.0 | 0.0 | 0.00 | 0.03 | 0.03 | 87 | 1011.6 |
| 20260507015432 | 58 | 330 | 0.0 | 0.0 | 0.00 | 0.03 | 0.03 | 86 | 1011.7 |
| 20260507014932 | 59 | 330 | 0.0 | 0.0 | 0.00 | 0.03 | 0.03 | 86 | 1011.8 |
| 20260507014435 | 59 | 330 | 0.0 | 3.5 | 0.00 | 0.03 | 0.03 | 86 | 1011.7 |
| 20260507013932 | 59 | 330 | 0.0 | 3.5 | 0.00 | 0.03 | 0.03 | 86 | 1011.9 |
| 20260507012935 | 59 | 255 | 0.0 | 0.0 | 0.00 | 0.03 | 0.03 | 84 | 1011.9 |
| 20260507012433 | 60 | 255 | 0.0 | 0.0 | 0.00 | 0.03 | 0.03 | 84 | 1011.8 |
| 20260507011935 | 60 | 255 | 0.0 | 0.0 | 0.00 | 0.03 | 0.03 | 84 | 1011.8 |
| 20260507011435 | 60 | 253 | 0.0 | 0.0 | 0.00 | 0.03 | 0.03 | 83 | 1011.8 |
| 20260507010932 | 60 | 241 | 0.0 | 0.0 | 0.00 | 0.03 | 0.03 | 83 | 1011.7 |
| 20260507010434 | 61 | 170 | 0.0 | 0.0 | 0.00 | 0.03 | 0.03 | 82 | 1011.8 |
| 20260507005433 | 62 | 213 | 0.0 | 1.7 | 0.00 | 0.03 | 0.03 | 80 | 1011.8 |
| 20260507004423 | 63 | 260 | 0.0 | 2.6 | 0.00 | 0.03 | 0.03 | 77 | 1011.6 |
| 20260507003921 | 63 | 102 | 1.7 | 6.1 | 0.00 | 0.03 | 0.03 | 74 | 1011.9 |
| 20260507002922 | 63 | 91 | 3.5 | 8.7 | 0.00 | 0.03 | 0.03 | 75 | 1011.8 |
| 20260507002421 | 62 | 229 | 0.0 | 8.7 | 0.00 | 0.03 | 0.03 | 76 | 1011.7 |
| 20260507001925 | 62 | 223 | 1.7 | 5.2 | 0.00 | 0.03 | 0.03 | 77 | 1011.8 |
| 20260507001417 | 63 | 111 | 2.6 | 3.5 | 0.00 | 0.03 | 0.03 | 77 | 1011.9 |
| 20260507000917 | 63 | 84 | 0.9 | 5.2 | 0.00 | 0.03 | 0.03 | 77 | 1011.8 |
| 20260507000409 | 63 | 216 | 3.5 | 5.2 | 0.01 | 0.03 | 0.03 | 77 | 1011.8 |
| 20260506235909 | 63 | 105 | 0.0 | 3.5 | 0.01 | 0.03 | 0.03 | 77 | 1011.9 |
| 20260506235417 | 63 | 107 | 0.9 | 3.5 | 0.01 | 0.03 | 0.03 | 77 | 1012.1 |
| 20260506234909 | 62 | 309 | 1.7 | 3.5 | 0.02 | 0.03 | 0.03 | 78 | 1012.1 |
| 20260506234410 | 62 | 98 | 0.9 | 5.2 | 0.03 | 0.03 | 0.03 | 80 | 1011.7 |
| 20260506233911 | 62 | 121 | 0.9 | 5.2 | 0.03 | 0.03 | 0.03 | 80 | 1012.1 |
| 20260506233409 | 62 | 114 | 0.9 | 5.2 | 0.03 | 0.03 | 0.03 | 80 | 1011.8 |
| 20260506232412 | 62 | 134 | 1.7 | 14.8 | 0.03 | 0.03 | 0.03 | 81 | 1012.1 |
| 20260506231408 | 62 | 63 | 1.7 | 12.2 | 0.03 | 0.03 | 0.03 | 81 | 1012.2 |
| 20260506230911 | 63 | 137 | 0.9 | 6.1 | 0.02 | 0.03 | 0.02 | 79 | 1012.2 |
| 20260506230409 | 63 | 80 | 0.9 | 7.8 | 0.02 | 0.02 | 0.02 | 78 | 1012.4 |
| 20260506225913 | 64 | 5 | 1.7 | 7.8 | 0.02 | 0.02 | 0.02 | 75 | 1012.1 |
| 20260506225411 | 65 | 166 | 0.9 | 6.1 | 0.02 | 0.02 | 0.02 | 74 | 1012.2 |
| 20260506224909 | 65 | 169 | 1.7 | 12.2 | 0.00 | 0.01 | 0.00 | 71 | 1012.1 |
| 20260506224408 | 65 | 121 | 0.9 | 12.2 | 0.00 | 0.00 | 0.00 | 71 | 1012.1 |
| 20260506223911 | 65 | 135 | 2.6 | 3.5 | 0.00 | 0.00 | 0.00 | 70 | 1011.9 |
| 20260506223410 | 65 | 352 | 1.7 | 3.5 | 0.00 | 0.00 | 0.00 | 71 | 1011.6 |
| 20260506222908 | 65 | 17 | 0.9 | 5.2 | 0.00 | 0.00 | 0.00 | 70 | 1011.7 |
| 20260506222412 | 65 | 145 | 0.0 | 5.2 | 0.00 | 0.00 | 0.00 | 69 | 1011.5 |
| 20260506221908 | 66 | 48 | 1.7 | 7.0 | 0.00 | 0.00 | 0.00 | 68 | 1011.5 |
| 20260506221409 | 66 | 226 | 1.7 | 7.8 | 0.00 | 0.00 | 0.00 | 68 | 1011.6 |
| 20260506220913 | 65 | 137 | 3.5 | 7.8 | 0.00 | 0.00 | 0.00 | 68 | 1011.7 |
| 20260506220410 | 65 | 152 | 1.7 | 8.7 | 0.00 | 0.00 | 0.00 | 69 | 1011.6 |
| 20260506215412 | 64 | 210 | 7.0 | 11.3 | 0.00 | 0.00 | 0.00 | 73 | 1011.8 |
| 20260506214359 | 64 | 288 | 0.0 | 3.5 | 0.00 | 0.00 | 0.00 | 76 | 1011.6 |
| 20260506213358 | 64 | 269 | 0.0 | 0.0 | 0.00 | 0.00 | 0.00 | 75 | 1011.6 |
| 20260506212356 | 65 | 275 | 0.0 | 1.7 | 0.00 | 0.00 | 0.00 | 72 | 1011.5 |
| 20260506211858 | 65 | 275 | 0.0 | 6.1 | 0.00 | 0.00 | 0.00 | 72 | 1011.5 |
| 20260506211359 | 65 | 175 | 0.9 | 6.1 | 0.00 | 0.00 | 0.00 | 70 | 1011.3 |
| 20260506210845 | 65 | 115 | 0.9 | 5.2 | 0.00 | 0.00 | 0.00 | 71 | 1011.3 |